Location: Dackenheim
(49.5215°N, 8.1854°E)
Time: 08:08:57
(UTC+00:00)

JY1SAT - Pass Details

Date: 22 March 2026
Orbit: 466 x 476 km, 97.4° (Epoch: 18 April)

Event Time Altitude Azimuth Distance (km) Brightness Sun altitude
Exits shadow 20:09:17 31° 15° (NNE) 867 ? -23.3°
Drops below altitude 10° 20:11:24 10° 357° (N) 1,665 ? -23.6°
Sets 20:13:30 0° 352° (N) 2,548 ? -23.8°
